Flag Weather past 2 weeks in Calgary, Alberta, Canada

Now
37 °F

Passing clouds.


Feels Like: 33 °F
Forecast: 27 / 38 °F
Wind: 6 mph from Southwest

Location: Calgary International

Current Time: Nov 22, 2014 at 3:49:17 AM

Latest Report: Nov 22, 2014 at 3:00 AM


Visibility: 15 mi

Pressure: 29.16 "Hg

Humidity: 70%

Dew point: 28 °F

Location of CalgaryLocation

Historic Weather in Calgary — Graph

°F

Calgary temperature yesterday

Maximum temperature yesterday: 48 °F (at 12:00 PM)
Minimum temperature yesterday: 36 °F (at 10:00 PM)
Average temperature yesterday: 42 °F

Past Weeks' High & Low Weather Summary

 TemperatureHumidityPressure
High55 °F (Nov 8, 1:00 PM)100% (Nov 8, 5:00 AM)30.90 "Hg (Nov 8, 5:00 AM)
Low-4 °F (Nov 12, 3:00 AM)34% (Nov 15, 7:00 PM)29.18 "Hg (Nov 22, 2:00 AM)
Average20 °F73%30.30 "Hg
* Reported Nov 7 2:00 AM — Nov 22 2:00 AM, Calgary, Weather by CustomWeather, © 2014

Note: Actual official high and low records may vary slightly from our data, if they occured in-between our weather recording intervals... More about our weather records

Advertising

Calgary weather history for previous 24 hours

 ConditionsComfort  
Time TempWeatherWind HumidityBarometerVisibility
2:00 AM
Nov 22
36 °FPassing clouds.9 mph75%29.18 "Hg15 mi
1:00 AM36 °FPassing clouds.6 mph75%29.23 "Hg15 mi
12:00 AM37 °FPassing clouds.6 mph65%29.26 "Hg15 mi
11:00 PM
Nov 21
36 °FPassing clouds.7 mph70%29.34 "Hg15 mi
10:00 PM36 °FPassing clouds.7 mph65%29.36 "Hg15 mi
9:00 PM37 °FPassing clouds.7 mph56%29.41 "Hg15 mi
8:00 PM37 °FPassing clouds.8 mph60%29.45 "Hg15 mi
7:00 PM39 °FPassing clouds.7 mph52%29.50 "Hg15 mi
6:00 PM39 °FPartly cloudy.7 mph52%29.56 "Hg15 mi
5:00 PM41 °FPassing clouds.6 mph45%29.58 "Hg40 mi
4:00 PM45 °FScattered clouds.5 mph42%29.59 "Hg40 mi
3:00 PM48 °FPassing clouds.12 mph37%29.61 "Hg40 mi
2:00 PM48 °FScattered clouds.18 mph34%29.60 "Hg40 mi
1:00 PM48 °FScattered clouds.13 mph37%29.60 "Hg40 mi
12:00 PM48 °FPartly sunny.17 mph34%29.61 "Hg40 mi
11:00 AM45 °FScattered clouds.14 mph42%29.62 "Hg40 mi
10:00 AM45 °FPartly sunny.13 mph42%29.62 "Hg40 mi
9:00 AM45 °FBroken clouds.9 mph42%29.62 "Hg40 mi
8:00 AM43 °FPartly cloudy.9 mph46%29.60 "Hg40 mi
7:00 AM41 °FPassing clouds.12 mph49%29.62 "Hg15 mi
6:00 AM41 °FPassing clouds.10 mph49%29.63 "Hg15 mi
5:00 AM41 °FPassing clouds.13 mph45%29.63 "Hg15 mi
4:00 AM41 °FPassing clouds.7 mph45%29.63 "Hg15 mi
3:00 AM41 °FPassing clouds.10 mph42%29.63 "Hg15 mi
Weather by CustomWeather, © 2014

See weather overviewHow to use our weather pages